User: anonymous   Login
Location: Dover
(39.1580°N, 75.5250°W)
Time: 04:19:03
(UTC-05:00)
Language:

SeaSat 1 - Orbit

View from above orbital plane
View from above orbital plane
View from above satellite
View from above satellite

Ground track
Ground track

The orbit data is extracted from the following two-line orbital elements,

1 10967U 78064A   14354.50579212  .00000786  00000-0  27374-3 0  4640
2 10967 107.9930 199.8264 0001966 308.5799 105.8119 14.43214502915350
Epoch (UTC): 20 December 2014 12:08:20
Eccentricity: 0.0001966
inclination: 107.9930°
perigee height: 746 km
apogee height: 749 km
right ascension of ascending node: 199.8264°
argument of perigee: 308.5799°
revolutions per day: 14.43214502
mean anomaly at epoch: 105.8119°
orbit number at epoch: 91535

The dashed part of the orbit path shows where the satellite is in the earth's shadow,  

DLR